When you browse on this site, cookies collect data to enhance your experience and personalize the content and advertising you see.
Visit our Privacy Policy to learn more. By continuing to use the site, you agree to this use of cookies and data.
  • Em Portugal
  • Lista de países
  • Para 7 dias
  • Temperatura da água
  • Mapa do tempo
  • Widgets de tempo
  • user-avatar
    Iniciar Sessão

    Previsão horária em Novelda

    Hoje, 12 Novembro, Terça-feira

    Tempo Temperatura Precipitação Vento Pressão Humidade
    00:00 +8°C° 0 mm 5 m/s 735 mmHg 59%
    01:00 +8°C° 0 mm 5 m/s 734 mmHg 59%
    02:00 +7°C° 0 mm 6 m/s 734 mmHg 58%
    03:00 +7°C° 0 mm 6 m/s 734 mmHg 57%
    04:00 +7°C° 0 mm 6 m/s 734 mmHg 58%
    05:00 +6°C° 0 mm 5 m/s 734 mmHg 59%
    06:00 +6°C° 0 mm 5 m/s 734 mmHg 58%
    07:00 +8°C° 0 mm 5 m/s 734 mmHg 54%
    08:00 +9°C° 0 mm 5 m/s 734 mmHg 50%
    09:00 +10°C° 0 mm 5 m/s 734 mmHg 47%
    10:00 +12°C° 0 mm 5 m/s 734 mmHg 43%
    11:00 +14°C° 0 mm 6 m/s 734 mmHg 39%
    12:00 +15°C° 0 mm 5 m/s 734 mmHg 35%
    13:00 +16°C° 0 mm 5 m/s 734 mmHg 34%
    14:00 +16°C° 0 mm 6 m/s 733 mmHg 33%
    15:00 +16°C° 0 mm 7 m/s 733 mmHg 31%
    16:00 +15°C° 0 mm 7 m/s 733 mmHg 35%
    17:00 +14°C° 0 mm 7 m/s 733 mmHg 39%
    18:00 +11°C° 0 mm 7 m/s 733 mmHg 43%
    19:00 +11°C° 0 mm 6 m/s 733 mmHg 46%
    20:00 +10°C° 0 mm 5 m/s 733 mmHg 49%
    21:00 +10°C° 0 mm 5 m/s 733 mmHg 52%
    22:00 +11°C° 0 mm 4 m/s 733 mmHg 55%
    23:00 +10°C° 0 mm 3 m/s 732 mmHg 58%

    Amanhã, 13 Novembro, Quarta-feira

    Tempo Temperatura Precipitação Vento Pressão Humidade
    00:00 +10°C° 0 mm 2 m/s 732 mmHg 61%
    01:00 +10°C° 0 mm 3 m/s 731 mmHg 59%
    02:00 +11°C° 0 mm 3 m/s 731 mmHg 57%
    03:00 +11°C° 0 mm 3 m/s 730 mmHg 56%
    04:00 +11°C° 0 mm 3 m/s 730 mmHg 59%
    05:00 +11°C° 0 mm 4 m/s 730 mmHg 62%
    06:00 +10°C° 0 mm 5 m/s 729 mmHg 66%
    07:00 +11°C° 0 mm 7 m/s 729 mmHg 64%
    08:00 +13°C° 0 mm 9 m/s 730 mmHg 63%
    09:00 +16°C° 0 mm 11 m/s 730 mmHg 61%
    10:00 +17°C° 0 mm 11 m/s 730 mmHg 57%
    11:00 +18°C° 0 mm 12 m/s 731 mmHg 53%
    12:00 +19°C° 0 mm 13 m/s 731 mmHg 50%
    13:00 +19°C° 0 mm 11 m/s 731 mmHg 47%
    14:00 +19°C° 0 mm 9 m/s 731 mmHg 45%
    15:00 +21°C° 0 mm 8 m/s 731 mmHg 43%
    16:00 +18°C° 0 mm 7 m/s 732 mmHg 48%
    17:00 +17°C° 0 mm 5 m/s 732 mmHg 53%
    18:00 +17°C° 0 mm 4 m/s 733 mmHg 59%
    19:00 +16°C° 0 mm 3 m/s 733 mmHg 63%
    20:00 +16°C° 0 mm 3 m/s 733 mmHg 68%
    21:00 +15°C° 0 mm 2 m/s 733 mmHg 72%
    22:00 +14°C° 0 mm 3 m/s 733 mmHg 73%
    23:00 +13°C° 0 mm 3 m/s 732 mmHg 73%

    Depois de amanhã, 14 Novembro, Quinta-feira

    Tempo Temperatura Precipitação Vento Pressão Humidade
    00:00 +13°C° 0 mm 3 m/s 732 mmHg 74%
    01:00 +13°C° 0 mm 3 m/s 731 mmHg 74%
    02:00 +12°C° 0 mm 3 m/s 731 mmHg 74%
    03:00 +12°C° 0 mm 3 m/s 730 mmHg 74%
    04:00 +12°C° 0 mm 3 m/s 729 mmHg 75%
    05:00 +12°C° 0 mm 2 m/s 729 mmHg 76%
    06:00 +12°C° 0 mm 2 m/s 728 mmHg 78%
    07:00 +12°C° 0 mm 3 m/s 728 mmHg 71%
    08:00 +13°C° 0 mm 5 m/s 728 mmHg 64%
    09:00 +14°C° 0 mm 6 m/s 728 mmHg 58%
    10:00 +13°C° 0 mm 8 m/s 728 mmHg 56%
    11:00 +13°C° 0 mm 10 m/s 727 mmHg 53%
    12:00 +13°C° 0 mm 12 m/s 727 mmHg 51%
    13:00 +12°C° 0.2 mm 11 m/s 727 mmHg 49%
    14:00 +12°C° 0.2 mm 11 m/s 727 mmHg 47%
    15:00 +12°C° 0.2 mm 10 m/s 726 mmHg 44%
    16:00 +11°C° 0 mm 10 m/s 727 mmHg 45%
    17:00 +10°C° 0 mm 9 m/s 727 mmHg 47%
    18:00 +8°C° 0 mm 9 m/s 727 mmHg 48%
    19:00 +8°C° 0 mm 9 m/s 727 mmHg 51%
    20:00 +7°C° 0 mm 10 m/s 727 mmHg 55%
    21:00 +7°C° 0 mm 10 m/s 726 mmHg 58%
    22:00 +6°C° 0 mm 10 m/s 726 mmHg 59%
    23:00 +6°C° 0 mm 9 m/s 726 mmHg 59%

    15 Novembro, Sexta-feira

    Tempo Temperatura Precipitação Vento Pressão Humidade
    00:00 +6°C° 0 mm 8 m/s 727 mmHg 60%
    01:00 +6°C° 0 mm 10 m/s 727 mmHg 59%
    02:00 +4°C° 0 mm 12 m/s 727 mmHg 58%
    03:00 +4°C° 0 mm 14 m/s 727 mmHg 57%
    04:00 +3°C° 0 mm 13 m/s 727 mmHg 56%
    05:00 +3°C° 0 mm 11 m/s 728 mmHg 56%
    06:00 +3°C° 0 mm 9 m/s 728 mmHg 56%
    07:00 +6°C° 0 mm 5 m/s 729 mmHg 66%
    08:00 +7°C° 0 mm 6 m/s 729 mmHg 62%
    09:00 +8°C° 0 mm 7 m/s 730 mmHg 58%
    10:00 +9°C° 0 mm 6 m/s 730 mmHg 54%
    11:00 +10°C° 0 mm 6 m/s 730 mmHg 50%
    12:00 +11°C° 0 mm 6 m/s 730 mmHg 46%
    13:00 +11°C° 0 mm 6 m/s 730 mmHg 46%
    14:00 +12°C° 0 mm 5 m/s 729 mmHg 45%
    15:00 +12°C° 0 mm 5 m/s 729 mmHg 45%
    16:00 +9°C° 0 mm 5 m/s 729 mmHg 49%
    17:00 +8°C° 0 mm 4 m/s 730 mmHg 54%
    18:00 +7°C° 0 mm 4 m/s 730 mmHg 58%
    19:00 +7°C° 0 mm 4 m/s 730 mmHg 60%
    20:00 +6°C° 0 mm 4 m/s 731 mmHg 61%
    21:00 +7°C° 0 mm 3 m/s 731 mmHg 62%
    22:00 +5°C° 0 mm 4 m/s 731 mmHg 63%
    23:00 +5°C° 0 mm 4 m/s 731 mmHg 64%

    16 Novembro, Sábado

    Tempo Temperatura Precipitação Vento Pressão Humidade
    00:00 +5°C° 0 mm 4 m/s 731 mmHg 65%
    01:00 +5°C° 0 mm 4 m/s 731 mmHg 65%
    02:00 +5°C° 0 mm 4 m/s 731 mmHg 65%
    03:00 +4°C° 0 mm 4 m/s 731 mmHg 66%
    04:00 +4°C° 0 mm 4 m/s 731 mmHg 67%
    05:00 +3°C° 0 mm 5 m/s 732 mmHg 68%
    06:00 +3°C° 0 mm 5 m/s 732 mmHg 68%
    07:00 +5°C° 0 mm 5 m/s 733 mmHg 63%
    08:00 +6°C° 0 mm 5 m/s 733 mmHg 57%
    09:00 +8°C° 0 mm 5 m/s 734 mmHg 51%
    10:00 +9°C° 0 mm 5 m/s 734 mmHg 46%
    11:00 +10°C° 0 mm 5 m/s 734 mmHg 40%
    12:00 +12°C° 0 mm 5 m/s 734 mmHg 35%
    13:00 +13°C° 0 mm 6 m/s 734 mmHg 35%
    14:00 +13°C° 0 mm 6 m/s 734 mmHg 36%
    15:00 +12°C° 0 mm 7 m/s 734 mmHg 36%
    16:00 +10°C° 0 mm 6 m/s 734 mmHg 41%
    17:00 +9°C° 0 mm 6 m/s 735 mmHg 46%
    18:00 +8°C° 0 mm 5 m/s 735 mmHg 51%
    19:00 +8°C° 0 mm 5 m/s 736 mmHg 52%
    20:00 +7°C° 0 mm 5 m/s 736 mmHg 53%
    21:00 +7°C° 0 mm 5 m/s 736 mmHg 54%
    22:00 +6°C° 0 mm 5 m/s 736 mmHg 55%
    23:00 +6°C° 0 mm 4 m/s 736 mmHg 57%

    17 Novembro, Domingo

    Tempo Temperatura Precipitação Vento Pressão Humidade
    00:00 +5°C° 0 mm 4 m/s 736 mmHg 59%
    01:00 +5°C° 0 mm 4 m/s 735 mmHg 60%
    02:00 +5°C° 0 mm 4 m/s 735 mmHg 61%
    03:00 +5°C° 0 mm 4 m/s 734 mmHg 62%
    04:00 +5°C° 0 mm 3 m/s 734 mmHg 62%
    05:00 +5°C° 0 mm 3 m/s 734 mmHg 62%
    06:00 +5°C° 0 mm 3 m/s 734 mmHg 63%
    07:00 +7°C° 0 mm 3 m/s 734 mmHg 59%
    08:00 +8°C° 0 mm 3 m/s 734 mmHg 55%
    09:00 +10°C° 0 mm 4 m/s 734 mmHg 51%
    10:00 +10°C° 0 mm 5 m/s 733 mmHg 50%
    11:00 +13°C° 0 mm 6 m/s 733 mmHg 49%
    12:00 +15°C° 0 mm 7 m/s 733 mmHg 47%
    13:00 +15°C° 0 mm 8 m/s 732 mmHg 48%
    14:00 +15°C° 0 mm 8 m/s 732 mmHg 49%
    15:00 +15°C° 0 mm 8 m/s 732 mmHg 50%
    16:00 +14°C° 0 mm 7 m/s 731 mmHg 54%
    17:00 +13°C° 0 mm 6 m/s 731 mmHg 58%
    18:00 +12°C° 0 mm 5 m/s 731 mmHg 62%
    19:00 +12°C° 0.1 mm 5 m/s 731 mmHg 65%
    20:00 +11°C° 0.1 mm 6 m/s 731 mmHg 68%
    21:00 +10°C° 0.1 mm 6 m/s 731 mmHg 70%
    22:00 +10°C° 0 mm 7 m/s 731 mmHg 69%
    23:00 +9°C° 0 mm 7 m/s 731 mmHg 67%
    Mostrar mais